{"data":{"norad_id":53088,"epoch":"2026-09-19T22:05:13.176096Z","epoch_age_seconds":122403,"freshness":"FRESH","line1":"1 53088U 22077AX  26262.92029139 -.00000514  00000+0 -13592-4 0  9990","line2":"2 53088  97.2855  77.6786 0001608  83.0359 277.1067 15.33442210230208","mean_motion":15.3344221,"eccentricity":0.0001608,"inclination_deg":97.2855,"raan_deg":77.6786,"arg_perigee_deg":83.0359,"mean_anomaly_deg":277.1067,"bstar":-1.3592e-5,"rev_number":23020,"period_min":93.906375513167,"perigee_km":464.45101046092,"apogee_km":466.65194067466,"semimajor_km":6843.6884755678,"source":"CELESTRAK","updated_at":"2026-09-20T09:00:40.178309Z"}}